Retour au catalogue

STARLINK-2616

ActifCommunicationsVLEO
NORAD 48695·PAYLOAD·🇺🇸 United States

Lancé May 26, 2021 depuis Cape Canaveral Space Force Station

Loading…

Prochains Passages (prochaines 24 heures)

TLE

FraisSource: CelesTrak SupGP

Époque: Sep 15, 2026, 00:33 UTC

1 48695C 21044BK  26258.02340278  .00033037  00000+0  10619-2 0  2584
2 48695  53.1581 276.6703 0001185  89.7185  16.0257 15.31700123    16

Suivez STARLINK-2616 en temps réel avec AllMySat

Download on the App Store